Theta_e
306 306 307 309 312 314 314 313 312 311 312 312 312 312 315 315 309 307 304 304 302 298 299 300 300 299 298 298 296 298 298 299 300 303 302 302 301 303 301 302 302 300 299 300 301 298 296 314 313 306 313 319 318 319
307 306 307 308 311 312 314 313 312 312 312 312 312 312 315 316 311 307 302 303 304 300 300 302 304 305 304 304 301 300 297 297 299 305 305 305 303 305 300 297 306 301 305 303 304 305 313 315 314 319 321 319 321 323
307 306 306 308 310 311 313 312 311 311 311 311 311 312 314 315 312 309 303 301 302 299 301 300 302 306 307 306 307 298 301 303 301 309 306 307 302 307 301 301 302 307 309 308 307 311 313 314 317 317 318 322 325 325
307 306 306 307 309 310 312 311 311 310 311 312 312 313 314 314 312 308 305 303 302 301 297 302 306 304 307 306 306 305 304 301 304 304 301 300 299 307 303 303 302 307 309 307 309 313 315 316 317 317 320 324 324 325
306 306 306 306 308 310 312 311 310 310 311 312 313 313 315 313 310 308 305 304 305 302 298 300 304 304 303 304 305 305 304 302 301 298 298 298 305 305 308 306 305 311 307 306 307 313 314 313 318 319 318 318 321 323
306 306 306 306 308 310 311 310 310 311 312 313 313 314 314 311 309 306 301 305 307 306 299 295 302 300 301 301 302 302 302 300 300 298 299 302 305 307 300 299 308 311 314 315 313 317 317 317 318 319 317 319 321 321
306 306 306 306 308 311 310 309 310 310 311 311 312 312 311 309 307 303 302 303 305 305 298 293 295 300 301 302 299 299 301 300 300 299 299 302 303 305 301 297 305 309 309 317 317 317 316 316 316 321 319 324 324 325
306 306 306 307 308 310 309 309 310 310 311 312 311 311 309 308 308 306 308 305 305 302 299 292 294 298 303 303 299 300 297 299 299 300 303 302 301 303 299 305 308 307 309 316 316 318 318 319 323 323 323 321 319 320
306 306 306 307 310 309 309 309 310 311 311 311 310 309 307 304 301 303 309 308 305 302 296 294 293 295 304 301 305 302 301 297 303 300 302 303 300 297 303 307 308 308 313 314 317 317 318 317 320 321 317 317 317 319
305 306 307 309 308 308 309 309 311 311 309 309 307 304 300 304 310 307 300 299 299 300 296 293 296 295 298 299 300 302 303 301 297 301 303 299 299 306 307 309 310 311 316 316 314 313 315 315 319 318 316 317 317 319
306 307 308 308 306 306 308 310 310 308 307 304 302 303 305 310 301 298 295 293 294 292 295 295 294 294 299 296 297 303 303 305 298 300 300 299 298 304 312 313 315 310 316 317 316 316 319 319 320 317 317 318 319 320
307 307 309 308 307 308 309 310 309 309 308 306 304 304 303 299 296 294 293 294 292 292 296 296 298 296 300 301 299 303 303 305 297 306 303 300 305 310 313 314 315 316 318 318 318 316 318 320 320 318 319 319 319 320
308 308 307 308 309 309 310 309 309 308 308 307 305 300 297 295 288 289 288 292 293 298 300 300 299 300 298 298 298 304 299 300 306 300 300 302 307 311 312 315 316 318 317 317 316 317 319 320 320 319 318 319 320 319
307 307 307 308 308 309 309 308 307 308 305 300 297 287 293 291 292 294 295 297 301 301 301 302 300 299 299 298 301 300 303 304 297 295 297 304 304 310 314 316 316 316 317 317 317 318 318 318 317 318 318 318 317 316
305 305 306 307 309 309 309 308 309 308 304 299 299 290 293 298 298 299 300 300 302 303 302 301 300 299 299 300 305 302 298 295 297 296 303 305 309 311 312 312 313 314 316 316 317 316 316 316 316 316 317 319 318 316
303 303 302 306 308 309 308 308 306 306 304 300 299 296 298 297 299 300 300 300 304 303 301 300 298 296 297 302 298 297 295 294 300 305 307 308 312 310 312 312 313 315 317 317 317 317 317 317 318 318 318 320 319 319
299 297 306 308 308 307 307 304 303 299 299 298 297 300 299 299 299 301 301 301 305 302 301 300 293 294 301 298 296 301 298 304 308 308 309 312 313 311 311 312 313 313 314 315 316 316 317 317 317 318 318 320 319 320
297 304 308 307 307 305 303 303 301 298 295 297 296 297 298 299 300 301 303 303 304 304 303 300 302 297 296 294 298 304 308 309 310 310 310 311 312 313 312 311 315 316 314 314 315 316 316 316 316 316 318 316 317 319
303 308 308 307 306 303 299 299 301 294 295 297 298 299 298 299 301 302 302 305 307 307 305 303 299 298 300 305 306 307 308 309 309 311 312 313 312 311 312 314 315 315 315 315 315 315 317 317 316 317 318 318 317 318
307 307 307 308 307 301 296 297 302 297 295 298 299 298 298 298 299 301 303 305 306 304 302 300 300 304 306 309 310 310 311 312 311 310 311 313 314 314 314 315 317 318 316 316 316 306 316 316 313 312 317 319 318 317
305 306 307 308 304 302 299 296 296 297 297 297 298 299 299 300 300 301 302 305 305 303 300 305 307 309 308 309 312 313 313 313 312 312 311 307 313 313 313 315 315 316 317 317 316 316 311 314 316 319 319 318 318 319
305 306 304 304 299 298 298 299 297 298 297 297 298 300 300 300 301 303 304 304 304 306 306 307 307 309 310 309 311 311 313 313 313 310 304 306 308 312 314 314 316 317 315 316 316 315 316 316 318 319 317 317 315 319
304 304 301 299 294 292 292 301 297 297 295 297 300 297 298 300 303 305 302 302 303 307 307 307 308 309 310 311 311 312 313 311 310 310 311 313 313 313 314 314 314 314 314 315 315 313 314 307 311 312 315 316 318 318
304 298 294 293 294 290 297 296 299 298 296 296 296 294 297 301 304 302 298 301 306 308 308 309 308 308 308 309 309 310 310 311 311 310 313 313 314 315 312 313 314 314 314 313 315 314 313 315 307 313 315 315 316 316
290 290 292 287 295 293 292 294 294 296 293 295 294 295 300 303 298 297 297 302 306 307 307 308 307 308 308 309 310 309 313 312 310 310 315 315 313 313 314 314 314 315 316 314 314 313 315 315 315 314 314 314 314 314
284 291 289 292 293 293 294 291 293 293 294 294 295 301 302 299 294 292 297 302 304 306 309 310 309 308 308 309 310 314 315 313 312 312 311 312 311 311 311 311 310 312 317 316 315 313 313 315 314 313 313 311 304 311
286 288 294 298 297 297 297 299 298 297 294 294 298 297 295 289 289 296 305 309 307 309 310 311 311 309 309 310 311 312 314 315 314 315 316 316 314 313 312 310 310 312 314 315 316 315 314 314 313 311 310 312 314 314
291 293 290 294 296 298 294 296 295 294 296 299 299 293 291 290 296 306 309 311 310 312 311 311 313 314 314 314 315 315 315 317 318 316 315 315 316 312 310 311 311 298 310 314 313 315 315 313 312 311 312 313 314 316
291 295 296 293 295 295 295 295 296 299 300 298 294 295 298 305 308 309 310 312 315 313 313 312 312 315 314 315 314 313 316 314 311 308 306 305 305 306 308 308 307 307 308 308 296 300 309 309 308 309 307 307 306 304
293 297 295 292 290 290 294 298 298 302 303 302 302 302 301 304 306 310 309 308 310 310 312 313 312 312 313 309 307 305 306 308 310 307 304 303 304 306 305 305 304 305 305 305 304 304 297 302 300 303 301 301 301 300
297 296 295 294 293 298 299 301 301 305 305 305 305 302 301 304 306 305 304 305 310 308 307 308 307 307 306 305 306 304 303 305 306 306 305 305 305 304 304 304 304 304 303 302 301 301 300 300 299 299 299 298 298 297
298 297 297 298 300 306 308 305 304 303 304 303 303 305 304 303 302 306 306 307 305 304 301 306 304 303 306 306 306 306 297 305 304 304 304 304 304 304 303 303 303 302 301 301 300 300 299 298 298 297 297 296 296 296
300 302 304 303 301 300 304 303 301 300 302 301 302 304 306 303 298 305 309 306 305 304 303 304 305 305 305 305 305 305 301 302 294 289 290 289 288 294 302 302 302 301 300 299 299 298 298 297 296 296 295 294 294 294
Wind_Speed
14 15 15 15 14 15 13 13 12 11 11 9 10 9 9 13 13 3 1 4 2 3 6 8 6 6 4 3 3 3 4 3 2 0 2 1 3 3 3 3 4 4 5 3 4 4 3 9 3 4 4 3 3 3
14 13 15 15 13 14 14 14 13 11 10 9 10 8 6 14 15 6 1 1 3 4 5 3 8 15 16 12 5 2 3 3 2 2 1 1 3 2 2 3 2 1 2 4 4 5 3 4 3 6 4 3 4 7
15 13 15 14 14 14 14 14 12 11 11 10 8 10 7 12 16 8 2 4 2 3 6 4 6 6 12 20 16 6 3 5 3 3 2 1 4 1 3 2 4 2 4 4 5 3 2 3 3 5 2 5 5 7
16 13 14 14 13 13 15 14 13 11 10 10 10 10 8 14 16 9 2 3 1 1 5 3 2 7 2 8 19 20 2 2 1 2 2 2 3 3 3 5 4 3 2 4 6 7 4 2 1 2 5 6 6 4
15 14 12 15 13 14 15 15 13 12 11 10 10 11 10 14 13 4 1 4 2 2 4 7 12 2 4 7 12 15 15 8 3 3 2 3 2 3 2 3 4 4 1 3 3 5 2 1 5 4 4 5 4 5
15 15 11 15 13 14 17 14 12 11 11 10 11 10 13 14 12 2 3 4 5 3 3 5 4 3 2 3 9 11 9 5 4 3 3 3 3 3 3 3 6 5 5 7 3 2 4 1 3 4 1 5 4 3
14 14 12 14 13 15 16 14 12 11 10 10 9 12 14 15 4 2 2 2 8 3 3 5 5 1 2 4 4 4 7 4 4 3 4 3 3 4 4 11 13 11 8 6 7 3 4 2 1 4 1 5 8 9
14 14 12 14 14 17 16 14 12 11 11 11 10 13 13 9 3 3 4 10 6 2 2 4 5 4 0 3 4 4 5 4 6 3 2 4 3 3 6 10 13 8 6 6 6 5 2 1 2 4 5 4 7 7
14 14 13 11 15 18 15 14 13 13 10 13 17 18 4 2 2 1 9 12 1 3 3 3 3 1 3 1 1 4 4 4 3 4 3 3 4 7 10 10 8 3 5 1 7 6 3 2 2 5 4 5 6 5
14 13 10 14 19 18 14 14 13 14 20 20 4 2 2 3 14 11 3 3 3 3 3 4 1 4 3 1 2 2 3 2 4 2 2 4 6 11 12 10 5 2 8 5 5 3 5 4 6 5 4 5 4 2
13 14 11 21 21 18 14 14 16 23 12 1 3 2 4 9 2 0 2 3 3 4 4 4 5 4 2 3 2 1 0 1 3 4 3 3 3 6 13 12 6 8 8 9 3 2 3 1 6 6 5 5 5 4
16 11 18 22 22 21 19 18 22 6 4 4 5 5 3 2 1 3 3 2 5 4 5 4 3 5 1 2 3 2 2 2 3 2 3 2 6 14 14 12 6 4 7 8 4 3 1 3 5 5 4 5 4 2
13 20 23 21 20 20 20 22 10 12 6 3 2 3 3 3 3 5 6 4 3 4 4 4 2 2 3 3 3 2 3 2 1 3 1 3 10 12 11 10 5 6 1 3 7 8 9 8 6 4 5 4 2 3
22 23 21 18 17 19 21 17 14 5 3 2 4 5 5 5 5 5 3 2 1 2 2 2 1 2 1 3 1 3 2 2 2 2 5 5 11 11 12 12 3 10 6 11 10 10 9 7 6 6 5 3 3 4
24 20 18 14 13 16 16 13 9 3 2 3 3 4 5 1 3 2 3 3 3 2 3 2 2 2 1 2 1 2 2 1 5 4 3 5 7 9 14 14 13 12 9 6 7 6 6 5 4 4 2 2 4 2
23 16 3 13 13 17 18 10 4 1 0 1 1 2 1 2 1 1 2 3 0 0 1 1 1 1 1 2 3 2 1 3 2 2 2 5 5 10 12 10 8 7 8 4 5 5 4 4 4 3 3 3 3 2
11 3 13 15 19 17 8 4 3 4 2 1 2 1 2 2 2 2 1 2 1 2 1 1 2 2 1 0 2 3 3 1 2 2 2 5 5 2 6 3 7 7 6 6 4 3 4 4 3 4 5 4 4 4
4 6 24 23 12 7 3 2 2 3 3 2 1 2 1 2 3 2 1 2 2 1 1 2 2 1 1 1 2 1 2 2 3 4 4 5 5 5 4 5 5 4 4 5 7 5 4 5 5 4 5 3 6 5
7 11 19 10 5 4 3 1 1 2 1 1 2 2 2 3 4 5 4 3 2 1 2 1 2 1 1 1 1 1 1 2 2 3 4 4 4 3 6 7 8 2 4 4 5 5 4 4 5 4 3 4 5 5
14 10 7 5 3 3 4 2 0 2 2 1 2 2 2 3 3 2 3 2 1 0 1 2 1 0 2 0 1 1 0 0 2 4 5 3 1 6 6 5 5 6 4 5 5 4 3 2 1 2 3 4 4 5
6 4 6 3 2 3 3 3 2 0 1 1 1 1 2 2 2 3 2 2 0 0 1 1 3 2 3 1 2 1 2 2 2 2 2 4 4 5 7 8 6 4 3 3 4 2 1 3 3 3 4 4 4 5
2 4 3 5 4 3 3 2 2 1 1 1 0 1 1 0 0 1 2 1 2 2 2 1 1 2 1 1 2 4 4 4 4 4 5 4 4 5 4 3 2 1 2 2 1 1 2 2 3 4 4 6 5 5
2 3 3 3 2 4 2 0 0 0 1 2 1 1 1 1 1 1 2 1 2 1 1 2 3 1 1 2 3 5 5 5 3 3 5 4 4 4 3 2 2 1 2 3 4 4 4 5 3 5 5 4 5 4
3 4 4 3 3 2 1 1 0 0 0 1 1 1 2 1 1 1 2 2 1 1 2 4 3 3 2 4 3 3 2 1 3 2 4 5 3 2 3 4 4 3 3 3 3 2 2 4 4 4 5 6 6 5
3 4 2 1 1 0 3 2 1 1 1 1 1 1 1 1 1 1 1 2 1 2 2 1 2 2 2 2 3 1 2 0 1 4 1 2 2 2 4 4 3 3 4 3 4 4 5 4 4 5 6 6 8 8
4 1 1 1 2 2 2 3 3 2 1 1 2 1 1 1 3 3 2 2 3 3 4 3 3 2 2 2 2 2 2 4 3 1 4 3 3 3 4 4 4 3 4 4 6 6 7 8 7 8 8 10 7 8
3 2 0 1 2 2 1 1 1 0 2 1 1 2 3 2 2 3 2 1 1 3 6 3 1 1 2 2 3 4 4 2 1 2 3 4 6 6 5 5 6 6 8 8 7 7 9 10 8 8 8 8 8 6
1 1 2 2 1 1 2 2 3 3 2 2 1 2 1 3 3 1 3 3 4 3 1 2 1 1 2 3 3 3 2 4 4 4 4 4 2 6 8 6 7 10 7 7 8 7 7 6 7 7 7 7 6 6
1 1 1 2 2 2 2 2 2 2 2 2 2 2 2 3 4 4 3 6 6 2 4 6 6 5 7 6 7 6 4 4 4 7 8 5 5 6 7 6 7 7 7 6 8 9 9 8 8 7 9 7 7 7
1 2 1 3 1 2 1 2 2 2 2 2 3 4 8 4 3 3 5 6 7 7 6 6 5 5 6 7 5 8 8 6 5 5 5 5 4 4 5 6 7 7 7 7 7 7 9 6 7 8 9 8 8 8
3 3 4 5 5 4 5 5 3 2 3 5 3 3 6 2 2 9 9 6 4 3 5 8 9 8 8 7 6 6 6 6 7 7 5 4 4 4 5 6 7 7 7 7 7 8 8 8 8 8 10 10 11 10
2 2 3 3 4 3 4 3 4 4 3 4 4 2 2 3 5 5 9 8 8 9 8 8 9 8 6 5 5 5 4 4 4 4 5 4 5 5 5 5 6 6 7 7 8 9 10 10 9 10 10 12 12 12
1 1 6 5 3 4 4 4 3 3 4 3 3 3 4 4 5 4 3 6 5 5 6 6 5 5 7 8 8 6 6 6 8 8 8 10 10 8 5 5 6 6 7 7 8 9 10 11 10 11 11 12 12 12
Wind_Direction
280 285 284 284 282 273 213 201 209 215 223 223 225 225 237 181 169 175 101 192 258 248 267 211 216 216 208 221 251 2 271 174 277 253 303 7 272 25 283 290 331 313 326 329 279 259 215 18 112 247 37 42 34 239
265 277 282 283 283 281 213 201 199 204 215 219 224 230 224 179 173 173 173 172 186 248 289 241 246 251 241 235 242 217 341 315 296 286 234 270 255 241 316 327 182 274 316 307 258 334 10 343 319 320 288 13 96 121
260 266 277 273 278 284 213 196 194 200 210 216 220 229 219 185 170 172 139 139 188 278 268 262 242 252 231 234 230 241 223 240 226 302 331 337 278 241 309 323 292 240 171 242 286 151 324 349 278 74 326 80 84 103
263 252 267 276 270 281 206 191 196 201 207 216 203 215 227 177 164 161 170 151 204 321 284 285 298 253 262 207 201 214 198 115 300 280 294 286 269 204 304 311 270 352 182 317 275 310 297 86 20 44 55 98 95 118
262 250 254 271 272 282 198 183 190 201 198 211 197 211 202 169 156 118 156 209 231 275 299 292 303 277 267 224 203 200 211 234 289 291 253 244 259 229 219 269 247 195 332 302 307 341 8 29 301 317 50 70 105 145
257 245 243 267 262 262 187 177 190 191 197 201 208 181 158 143 128 150 270 175 193 202 269 288 346 276 325 157 186 186 190 189 223 230 232 243 249 256 284 279 257 226 209 236 270 275 233 132 231 265 28 20 26 80
252 243 235 259 265 220 178 182 182 186 192 188 181 150 148 147 147 199 346 36 158 174 247 288 287 255 298 142 134 138 172 190 214 225 231 249 202 201 252 258 275 298 275 241 228 202 223 103 78 8 97 60 77 82
246 241 235 237 265 182 170 175 174 177 191 167 154 135 142 129 358 268 179 142 158 142 237 277 277 284 195 190 149 157 154 192 195 252 228 228 139 218 251 241 255 277 273 232 233 227 345 54 91 96 86 63 65 62
235 238 228 248 204 163 165 166 168 167 163 140 122 121 112 144 189 234 144 143 37 348 300 242 276 308 339 106 115 160 197 184 138 234 225 206 179 225 235 239 245 265 216 273 196 211 227 223 179 122 96 74 68 58
234 232 219 212 157 152 165 164 162 147 130 130 134 127 167 193 125 133 151 140 166 198 226 254 269 261 293 337 135 205 198 225 219 149 161 228 248 253 256 262 267 272 217 171 157 200 208 226 200 163 124 105 99 92
223 209 219 159 153 161 174 153 149 133 125 65 138 111 73 140 154 182 184 212 160 226 202 235 228 275 157 282 347 325 52 205 241 122 248 219 271 1 342 315 265 222 204 194 222 286 229 206 184 163 147 126 119 134
201 216 173 156 164 170 169 159 153 147 163 160 122 103 123 143 118 218 205 164 218 241 185 215 212 218 227 264 268 181 277 214 226 132 235 208 359 334 343 348 1 147 189 219 235 270 145 103 128 134 139 111 96 116
195 163 151 157 159 156 151 159 150 119 154 74 89 111 160 136 187 213 191 196 225 197 196 201 242 214 177 217 248 251 241 258 197 216 9 64 330 336 340 331 339 31 29 106 87 92 97 98 95 98 96 70 12 332
144 142 141 143 146 146 153 147 120 130 87 148 167 134 207 178 229 205 209 221 240 236 200 293 223 240 149 203 257 265 47 266 264 19 19 13 336 334 352 355 306 51 60 82 78 81 85 89 82 66 63 54 4 344
122 117 118 118 131 143 148 123 107 77 199 175 149 189 199 238 258 254 265 279 245 260 250 186 167 252 137 244 225 296 230 65 41 18 307 351 326 22 24 10 0 18 349 55 74 81 83 87 92 106 111 354 357 17
114 111 126 150 139 130 121 106 67 354 326 190 161 153 139 237 174 185 225 264 77 264 153 228 129 174 129 315 242 11 334 56 131 247 312 295 317 43 8 359 353 328 327 14 51 55 53 45 29 14 331 333 347 332
90 89 152 124 128 119 85 77 50 14 336 263 164 234 292 302 275 291 301 293 330 238 164 182 173 50 129 139 36 350 50 11 252 281 307 268 284 180 159 309 307 322 333 335 349 356 345 335 314 298 311 347 313 258
73 132 134 135 134 77 44 58 166 184 169 162 201 117 208 257 283 280 268 325 309 31 241 64 128 170 53 69 99 97 252 260 257 257 297 304 271 256 276 269 294 328 329 320 304 306 306 315 304 296 303 304 297 276
126 128 128 107 162 139 102 68 327 118 76 19 303 250 268 273 268 282 291 310 269 316 158 119 10 34 75 209 324 303 275 271 313 310 290 301 244 280 288 296 290 305 328 322 307 294 316 312 307 308 297 293 308 306
96 91 118 122 58 72 103 108 187 148 153 78 249 256 275 297 331 281 281 323 36 353 145 154 233 139 223 331 289 265 243 217 315 330 330 337 260 268 280 279 335 335 332 317 301 281 300 337 57 359 322 317 310 314
65 22 47 84 89 55 81 129 130 330 142 219 28 313 325 306 311 352 17 344 286 281 241 215 240 247 135 212 256 257 249 223 247 281 334 309 313 326 328 334 344 310 295 282 261 280 261 2 345 336 316 318 321 317
94 48 59 25 54 34 87 38 40 81 247 38 271 233 268 239 326 27 340 244 236 246 221 243 291 317 56 213 247 231 261 249 279 284 272 254 258 268 257 275 257 227 240 242 207 306 348 345 329 305 326 343 321 308
47 49 61 30 91 49 56 342 121 129 27 61 243 218 148 140 58 295 255 258 283 269 274 270 274 290 302 284 271 260 257 274 293 304 298 277 247 267 287 290 257 307 308 50 353 343 319 347 337 334 327 311 312 319
21 48 37 39 50 79 237 108 66 39 261 206 208 161 111 42 342 256 270 261 256 313 260 257 254 269 234 240 259 304 323 279 288 221 240 276 297 349 0 19 24 19 353 315 317 338 325 334 315 320 323 318 297 302
66 6 52 3 277 241 102 125 134 184 135 162 151 115 111 240 239 244 292 297 304 308 323 274 227 244 268 320 316 339 77 152 208 241 337 310 315 350 38 31 24 24 357 6 4 337 342 325 302 307 323 324 319 316
82 190 177 200 127 213 140 149 183 172 142 112 65 23 246 33 9 339 331 304 307 307 327 318 234 219 189 237 295 101 76 28 349 26 53 30 42 47 35 10 355 10 7 330 317 317 308 308 305 308 316 332 314 300
111 140 139 340 317 317 219 156 86 64 73 58 97 48 45 64 307 263 292 122 299 298 303 321 294 121 112 200 266 295 333 335 278 106 122 87 58 40 19 2 353 345 333 322 315 311 308 310 315 318 318 316 316 331
64 331 101 108 183 246 19 47 73 66 68 14 29 73 258 195 187 310 314 338 317 301 14 36 83 134 140 155 149 129 160 174 133 119 126 130 70 32 11 360 356 337 330 355 343 332 332 330 322 326 331 345 3 9
168 185 230 136 77 61 46 41 77 67 65 49 321 310 306 53 0 349 328 337 346 27 78 84 61 63 76 66 73 62 25 34 70 77 61 38 29 31 13 9 16 15 9 13 61 40 35 42 35 30 37 35 47 46
133 174 39 61 47 239 204 190 147 147 108 123 252 95 69 58 14 346 15 9 25 38 38 58 51 47 69 69 43 49 40 33 30 44 44 44 34 5 9 17 13 8 2 4 8 28 27 36 43 36 33 32 25 25
124 192 217 177 224 182 183 196 255 204 163 141 130 79 89 116 85 39 32 357 8 59 41 61 60 49 58 54 47 56 63 45 38 48 50 69 59 40 23 15 12 16 21 24 26 27 23 30 30 33 32 28 25 16
185 248 353 62 63 94 131 66 65 69 63 82 63 7 16 43 63 46 7 359 34 47 32 48 60 50 39 53 49 51 26 35 44 47 48 49 47 32 24 21 23 28 29 33 35 32 29 28 29 25 18 19 14 12
133 84 87 86 61 54 25 68 56 46 31 40 35 29 34 54 69 10 5 33 35 34 45 52 56 53 48 45 33 28 37 73 72 58 63 54 42 24 30 32 32 29 32 33 32 31 30 30 29 25 22 18 14 13